Time,TemperatureF,DewpointF,PressureIn,WindDirection,WindDirectionDegrees,WindSpeedMPH,WindSpeedGustMPH,Humidity,HourlyPrecipIn,Conditions,Clouds,dailyrainin,SoftwareType,DateUTC
2013-09-21 00:01:00,61.7,57.5,29.85,NNW,344,0.0,2.0,86,0.00,,,0.24,VWS V14.01,2013-09-21 05:01:00,
2013-09-21 00:06:00,61.6,57.4,29.86,NNW,339,0.0,0.0,86,0.00,,,0.00,VWS V14.01,2013-09-21 05:06:00,
2013-09-21 00:11:00,61.5,57.3,29.86,NNW,339,0.0,1.0,86,0.00,,,0.00,VWS V14.01,2013-09-21 05:11:00,
2013-09-21 00:16:00,61.3,56.8,29.86,NNW,339,0.0,0.0,85,0.00,,,0.00,VWS V14.01,2013-09-21 05:16:00,
2013-09-21 00:21:00,61.2,56.7,29.86,NNW,339,0.0,0.0,85,0.00,,,0.00,VWS V14.01,2013-09-21 05:21:00,
2013-09-21 00:26:00,61.1,56.6,29.86,NNW,339,0.0,0.0,85,0.00,,,0.00,VWS V14.01,2013-09-21 05:26:00,
2013-09-21 00:31:00,60.9,56.4,29.86,NNW,339,0.0,1.0,85,0.00,,,0.00,VWS V14.01,2013-09-21 05:31:00,
2013-09-21 00:36:00,60.8,56.3,29.86,NNW,337,0.0,1.0,85,0.00,,,0.00,VWS V14.01,2013-09-21 05:36:00,
2013-09-21 00:41:00,60.7,56.2,29.86,NNW,337,0.0,1.0,85,0.00,,,0.00,VWS V14.01,2013-09-21 05:41:00,
2013-09-21 00:46:00,60.5,56.0,29.86,NNW,337,0.0,0.0,85,0.00,,,0.00,VWS V14.01,2013-09-21 05:46:00,
2013-09-21 00:51:00,60.4,55.9,29.86,NNW,337,0.0,1.0,85,0.00,,,0.00,VWS V14.01,2013-09-21 05:51:00,
2013-09-21 00:56:00,60.4,55.5,29.86,NNW,337,0.0,0.0,84,0.00,,,0.00,VWS V14.01,2013-09-21 05:56:00,
2013-09-21 01:01:00,60.3,55.5,29.86,NNW,337,0.0,0.0,84,0.00,,,0.00,VWS V14.01,2013-09-21 06:01:00,
2013-09-21 01:06:00,60.2,55.3,29.86,NNW,337,0.0,0.0,84,0.00,,,0.00,VWS V14.01,2013-09-21 06:06:00,
2013-09-21 01:11:00,60.1,55.3,29.86,NNW,337,0.0,0.0,84,0.00,,,0.00,VWS V14.01,2013-09-21 06:11:00,
2013-09-21 01:16:00,60.0,55.2,29.86,NNW,337,0.0,0.0,84,0.00,,,0.00,VWS V14.01,2013-09-21 06:16:00,
2013-09-21 01:21:00,59.9,55.1,29.85,NNW,337,0.0,0.0,84,0.00,,,0.00,VWS V14.01,2013-09-21 06:21:00,
2013-09-21 01:26:00,59.8,55.0,29.86,NNW,337,0.0,0.0,84,0.00,,,0.00,VWS V14.01,2013-09-21 06:26:00,
2013-09-21 01:31:00,59.6,54.8,29.85,NNW,337,0.0,0.0,84,0.00,,,0.00,VWS V14.01,2013-09-21 06:31:00,
2013-09-21 01:36:00,59.4,54.9,29.85,NNW,337,0.0,0.0,85,0.00,,,0.00,VWS V14.01,2013-09-21 06:36:00,
2013-09-21 01:41:00,59.3,54.8,29.85,NNW,337,0.0,1.0,85,0.00,,,0.00,VWS V14.01,2013-09-21 06:41:00,
2013-09-21 01:46:00,59.1,54.6,29.85,NNW,337,0.0,0.0,85,0.00,,,0.00,VWS V14.01,2013-09-21 06:46:00,
2013-09-21 01:51:00,58.9,54.4,29.85,NNW,337,0.0,0.0,85,0.00,,,0.00,VWS V14.01,2013-09-21 06:51:00,
2013-09-21 01:56:00,58.8,54.3,29.85,NNW,337,0.0,0.0,85,0.00,,,0.00,VWS V14.01,2013-09-21 06:56:00,
2013-09-21 02:01:00,58.6,54.1,29.85,NNW,337,0.0,0.0,85,0.00,,,0.00,VWS V14.01,2013-09-21 07:01:00,
2013-09-21 02:06:00,58.4,53.9,29.85,NNW,337,0.0,0.0,85,0.00,,,0.00,VWS V14.01,2013-09-21 07:06:00,
2013-09-21 02:11:00,58.3,54.1,29.85,NNW,337,0.0,0.0,86,0.00,,,0.00,VWS V14.01,2013-09-21 07:11:00,
2013-09-21 02:16:00,58.1,53.9,29.85,NNW,337,0.0,0.0,86,0.00,,,0.00,VWS V14.01,2013-09-21 07:16:00,
2013-09-21 02:21:00,58.0,53.8,29.85,NNW,337,0.0,0.0,86,0.00,,,0.00,VWS V14.01,2013-09-21 07:21:00,
2013-09-21 02:26:00,57.8,53.7,29.85,NNW,337,0.0,0.0,86,0.00,,,0.00,VWS V14.01,2013-09-21 07:26:00,
2013-09-21 02:31:00,57.6,53.5,29.84,NNW,337,0.0,0.0,86,0.00,,,0.00,VWS V14.01,2013-09-21 07:31:00,
2013-09-21 02:36:00,57.4,53.2,29.84,NNW,337,0.0,0.0,86,0.00,,,0.00,VWS V14.01,2013-09-21 07:36:00,
2013-09-21 02:41:00,57.3,53.2,29.84,NNW,337,0.0,0.0,86,0.00,,,0.00,VWS V14.01,2013-09-21 07:41:00,
2013-09-21 02:46:00,57.2,53.1,29.84,NNW,337,0.0,0.0,86,0.00,,,0.00,VWS V14.01,2013-09-21 07:46:00,
2013-09-21 02:51:00,57.1,53.0,29.84,NNW,337,0.0,0.0,86,0.00,,,0.00,VWS V14.01,2013-09-21 07:51:00,
2013-09-21 02:56:00,57.1,53.3,29.84,NNW,337,0.0,0.0,87,0.00,,,0.00,VWS V14.01,2013-09-21 07:56:00,
2013-09-21 03:01:00,57.0,53.2,29.84,NNW,337,0.0,0.0,87,0.00,,,0.00,VWS V14.01,2013-09-21 08:01:00,
2013-09-21 03:06:00,56.9,53.1,29.84,NNW,337,0.0,0.0,87,0.00,,,0.00,VWS V14.01,2013-09-21 08:06:00,
2013-09-21 03:11:00,56.8,53.0,29.84,NNW,337,0.0,0.0,87,0.00,,,0.00,VWS V14.01,2013-09-21 08:11:00,
2013-09-21 03:16:00,56.7,52.6,29.84,NNW,337,0.0,0.0,86,0.00,,,0.00,VWS V14.01,2013-09-21 08:16:00,
2013-09-21 03:21:00,56.6,52.8,29.84,NNW,337,0.0,0.0,87,0.00,,,0.00,VWS V14.01,2013-09-21 08:21:00,
2013-09-21 03:26:00,56.4,52.6,29.84,NNW,337,0.0,0.0,87,0.00,,,0.00,VWS V14.01,2013-09-21 08:26:00,
2013-09-21 03:31:00,56.2,52.4,29.84,NNW,337,0.0,0.0,87,0.00,,,0.00,VWS V14.01,2013-09-21 08:31:00,
2013-09-21 03:36:00,56.1,52.3,29.85,NNW,337,0.0,0.0,87,0.00,,,0.00,VWS V14.01,2013-09-21 08:36:00,
2013-09-21 03:41:00,55.9,52.1,29.84,NNW,337,0.0,0.0,87,0.00,,,0.00,VWS V14.01,2013-09-21 08:41:00,
2013-09-21 03:46:00,55.8,52.0,29.84,NNW,337,0.0,0.0,87,0.00,,,0.00,VWS V14.01,2013-09-21 08:46:00,
2013-09-21 03:51:00,55.7,51.9,29.84,NNW,337,0.0,0.0,87,0.00,,,0.00,VWS V14.01,2013-09-21 08:51:00,
2013-09-21 03:56:00,55.7,51.9,29.84,NNW,337,0.0,0.0,87,0.00,,,0.00,VWS V14.01,2013-09-21 08:56:00,
2013-09-21 04:01:00,55.6,51.8,29.84,NNW,337,0.0,0.0,87,0.00,,,0.00,VWS V14.01,2013-09-21 09:01:00,
2013-09-21 04:06:00,55.5,51.7,29.84,NNW,337,0.0,0.0,87,0.00,,,0.00,VWS V14.01,2013-09-21 09:06:00,
2013-09-21 04:11:00,55.4,51.6,29.85,NNW,337,0.0,0.0,87,0.00,,,0.00,VWS V14.01,2013-09-21 09:11:00,
2013-09-21 04:16:00,55.3,51.5,29.84,NNW,337,0.0,0.0,87,0.00,,,0.00,VWS V14.01,2013-09-21 09:16:00,
2013-09-21 04:21:00,55.2,51.4,29.84,NNW,337,0.0,0.0,87,0.00,,,0.00,VWS V14.01,2013-09-21 09:21:00,
2013-09-21 04:26:00,55.3,51.5,29.84,NNW,337,0.0,0.0,87,0.00,,,0.00,VWS V14.01,2013-09-21 09:26:00,
2013-09-21 04:31:00,55.3,51.5,29.84,NNW,337,0.0,0.0,87,0.00,,,0.00,VWS V14.01,2013-09-21 09:31:00,
2013-09-21 04:36:00,55.2,51.4,29.84,NNW,337,0.0,0.0,87,0.00,,,0.00,VWS V14.01,2013-09-21 09:36:00,
2013-09-21 04:41:00,55.0,51.2,29.84,NNW,337,0.0,0.0,87,0.00,,,0.00,VWS V14.01,2013-09-21 09:41:00,
2013-09-21 04:46:00,55.0,51.2,29.85,NNW,337,0.0,0.0,87,0.00,,,0.00,VWS V14.01,2013-09-21 09:46:00,
2013-09-21 04:51:00,54.9,51.1,29.85,NNW,337,0.0,0.0,87,0.00,,,0.00,VWS V14.01,2013-09-21 09:51:00,
2013-09-21 04:56:00,54.8,51.0,29.85,NNW,337,0.0,0.0,87,0.00,,,0.00,VWS V14.01,2013-09-21 09:56:00,
2013-09-21 05:01:00,54.8,51.0,29.85,NNW,337,0.0,0.0,87,0.00,,,0.00,VWS V14.01,2013-09-21 10:01:00,
2013-09-21 05:06:00,54.7,50.9,29.85,NNW,337,0.0,0.0,87,0.00,,,0.00,VWS V14.01,2013-09-21 10:06:00,
2013-09-21 05:11:00,54.7,50.6,29.85,NNW,337,0.0,0.0,86,0.00,,,0.00,VWS V14.01,2013-09-21 10:11:00,
2013-09-21 05:16:00,54.6,50.5,29.85,NNW,337,0.0,0.0,86,0.00,,,0.00,VWS V14.01,2013-09-21 10:16:00,
2013-09-21 05:21:00,54.6,50.8,29.86,NNW,337,0.0,0.0,87,0.00,,,0.00,VWS V14.01,2013-09-21 10:21:00,
2013-09-21 05:26:00,54.4,50.3,29.86,NNW,337,0.0,0.0,86,0.00,,,0.00,VWS V14.01,2013-09-21 10:26:00,
2013-09-21 05:31:00,54.3,50.2,29.86,NNW,337,0.0,0.0,86,0.00,,,0.00,VWS V14.01,2013-09-21 10:31:00,
2013-09-21 05:36:00,54.2,50.1,29.86,NNW,337,0.0,0.0,86,0.00,,,0.00,VWS V14.01,2013-09-21 10:36:00,
2013-09-21 05:41:00,54.1,50.0,29.86,NNW,337,0.0,0.0,86,0.00,,,0.00,VWS V14.01,2013-09-21 10:41:00,
2013-09-21 05:46:00,54.1,50.0,29.86,NNW,337,0.0,0.0,86,0.00,,,0.00,VWS V14.01,2013-09-21 10:46:00,
2013-09-21 05:51:00,54.1,50.0,29.86,NNW,337,0.0,0.0,86,0.00,,,0.00,VWS V14.01,2013-09-21 10:51:00,
2013-09-21 05:56:00,54.1,50.0,29.86,NNW,337,0.0,0.0,86,0.00,,,0.00,VWS V14.01,2013-09-21 10:56:00,
2013-09-21 06:01:00,54.1,50.0,29.86,NNW,337,0.0,0.0,86,0.00,,,0.00,VWS V14.01,2013-09-21 11:01:00,
2013-09-21 06:06:00,53.9,49.8,29.86,NNW,337,0.0,0.0,86,0.00,,,0.00,VWS V14.01,2013-09-21 11:06:00,
2013-09-21 06:11:00,53.8,49.7,29.86,NNW,337,0.0,0.0,86,0.00,,,0.00,VWS V14.01,2013-09-21 11:11:00,
2013-09-21 06:16:00,53.8,49.7,29.87,NNW,337,0.0,0.0,86,0.00,,,0.00,VWS V14.01,2013-09-21 11:16:00,
2013-09-21 06:21:00,53.7,49.6,29.87,NNW,337,0.0,0.0,86,0.00,,,0.00,VWS V14.01,2013-09-21 11:21:00,
2013-09-21 06:26:00,53.6,49.5,29.87,NNW,337,0.0,0.0,86,0.00,,,0.00,VWS V14.01,2013-09-21 11:26:00,
2013-09-21 06:31:00,53.6,49.5,29.87,NNW,337,0.0,0.0,86,0.00,,,0.00,VWS V14.01,2013-09-21 11:31:00,
2013-09-21 06:36:00,53.5,49.4,29.87,NNW,337,0.0,0.0,86,0.00,,,0.00,VWS V14.01,2013-09-21 11:36:00,
2013-09-21 06:41:00,53.4,49.3,29.88,NNW,337,0.0,0.0,86,0.00,,,0.00,VWS V14.01,2013-09-21 11:41:00,
2013-09-21 06:46:00,53.4,49.3,29.88,NNW,337,0.0,0.0,86,0.00,,,0.00,VWS V14.01,2013-09-21 11:46:00,
2013-09-21 06:51:00,53.3,49.2,29.88,NNW,337,0.0,0.0,86,0.00,,,0.00,VWS V14.01,2013-09-21 11:51:00,
2013-09-21 06:56:00,53.3,49.2,29.88,NNW,337,0.0,0.0,86,0.00,,,0.00,VWS V14.01,2013-09-21 11:56:00,
2013-09-21 07:01:00,53.2,49.1,29.88,NNW,337,0.0,0.0,86,0.00,,,0.00,VWS V14.01,2013-09-21 12:01:00,
2013-09-21 07:06:00,53.3,49.2,29.89,NNW,337,0.0,0.0,86,0.00,,,0.00,VWS V14.01,2013-09-21 12:06:00,
2013-09-21 07:11:00,53.2,49.1,29.89,NNW,337,0.0,0.0,86,0.00,,,0.00,VWS V14.01,2013-09-21 12:11:00,
2013-09-21 07:16:00,53.1,49.0,29.90,NNW,337,0.0,0.0,86,0.00,,,0.00,VWS V14.01,2013-09-21 12:16:00,
2013-09-21 07:21:00,53.1,48.7,29.90,NNW,337,0.0,0.0,85,0.00,,,0.00,VWS V14.01,2013-09-21 12:21:00,
2013-09-21 07:26:00,53.2,48.8,29.89,NNW,337,0.0,0.0,85,0.00,,,0.00,VWS V14.01,2013-09-21 12:26:00,
2013-09-21 07:31:00,53.3,48.9,29.90,NNW,337,0.0,0.0,85,0.00,,,0.00,VWS V14.01,2013-09-21 12:31:00,
2013-09-21 07:36:00,53.6,48.9,29.89,NNW,337,0.0,0.0,84,0.00,,,0.00,VWS V14.01,2013-09-21 12:36:00,
2013-09-21 07:41:00,53.9,49.2,29.89,NNW,337,0.0,0.0,84,0.00,,,0.00,VWS V14.01,2013-09-21 12:41:00,
2013-09-21 07:46:00,54.1,49.4,29.89,NNW,337,0.0,0.0,84,0.00,,,0.00,VWS V14.01,2013-09-21 12:46:00,
2013-09-21 07:51:00,54.4,49.7,29.89,NNW,337,0.0,0.0,84,0.00,,,0.00,VWS V14.01,2013-09-21 12:51:00,
2013-09-21 07:56:00,54.7,50.0,29.89,NNW,337,0.0,0.0,84,0.00,,,0.00,VWS V14.01,2013-09-21 12:56:00,
2013-09-21 08:01:00,55.0,50.3,29.89,NNW,337,0.0,0.0,84,0.00,,,0.00,VWS V14.01,2013-09-21 13:01:00,
2013-09-21 08:06:00,55.3,50.6,29.89,NNW,337,0.0,0.0,84,0.00,,,0.00,VWS V14.01,2013-09-21 13:06:00,
2013-09-21 08:11:00,55.7,51.0,29.89,NW,313,0.0,0.0,84,0.00,,,0.00,VWS V14.01,2013-09-21 13:11:00,
2013-09-21 08:16:00,56.1,51.3,29.89,NW,313,0.0,1.0,84,0.00,,,0.00,VWS V14.01,2013-09-21 13:16:00,
2013-09-21 08:21:00,56.6,51.8,29.89,NW,313,0.0,0.0,84,0.00,,,0.00,VWS V14.01,2013-09-21 13:21:00,
2013-09-21 08:26:00,57.2,52.7,29.90,WNW,302,0.0,1.0,85,0.00,,,0.00,VWS V14.01,2013-09-21 13:26:00,
2013-09-21 08:31:00,57.7,53.5,29.90,WNW,302,0.0,0.0,86,0.00,,,0.00,VWS V14.01,2013-09-21 13:31:00,
2013-09-21 08:36:00,58.3,54.1,29.90,NW,305,0.0,1.0,86,0.00,,,0.00,VWS V14.01,2013-09-21 13:36:00,
2013-09-21 08:42:00,58.9,54.7,29.90,NW,305,0.0,0.0,86,0.00,,,0.00,VWS V14.01,2013-09-21 13:42:00,
2013-09-21 08:47:00,59.6,55.4,29.90,WNW,290,0.0,1.0,86,0.00,,,0.00,VWS V14.01,2013-09-21 13:47:00,
2013-09-21 08:52:00,60.2,55.7,29.90,WNW,290,0.0,0.0,85,0.00,,,0.00,VWS V14.01,2013-09-21 13:52:00,
2013-09-21 08:57:00,60.7,55.8,29.90,WNW,295,0.0,2.0,84,0.00,,,0.00,VWS V14.01,2013-09-21 13:57:00,
2013-09-21 09:02:00,61.2,56.0,29.90,WNW,295,0.0,0.0,83,0.00,,,0.00,VWS V14.01,2013-09-21 14:02:00,
2013-09-21 09:07:00,61.7,56.2,29.90,WNW,298,0.0,2.0,82,0.00,,,0.00,VWS V14.01,2013-09-21 14:07:00,
2013-09-21 09:12:00,62.1,55.9,29.90,West,281,0.0,0.0,80,0.00,,,0.00,VWS V14.01,2013-09-21 14:12:00,
2013-09-21 09:17:00,62.4,55.8,29.91,West,281,0.0,1.0,79,0.00,,,0.00,VWS V14.01,2013-09-21 14:17:00,
2013-09-21 09:22:00,62.9,55.9,29.91,West,273,0.0,0.0,78,0.00,,,0.00,VWS V14.01,2013-09-21 14:22:00,
2013-09-21 09:27:00,63.1,55.4,29.91,West,273,0.0,1.0,76,0.00,,,0.00,VWS V14.01,2013-09-21 14:27:00,
2013-09-21 09:32:00,63.3,55.6,29.91,West,272,0.0,0.0,76,0.00,,,0.00,VWS V14.01,2013-09-21 14:32:00,
2013-09-21 09:37:00,63.7,56.0,29.90,NNW,348,3.0,3.0,76,0.00,,,0.00,VWS V14.01,2013-09-21 14:37:00,
2013-09-21 09:42:00,64.2,55.4,29.91,NNW,348,0.0,0.0,73,0.00,,,0.00,VWS V14.01,2013-09-21 14:42:00,
2013-09-21 09:47:00,64.3,54.7,29.90,ENE,60,0.0,7.0,71,0.00,,,0.00,VWS V14.01,2013-09-21 14:47:00,
2013-09-21 09:52:00,64.7,55.1,29.90,NNE,28,4.0,7.0,71,0.00,,,0.00,VWS V14.01,2013-09-21 14:52:00,
2013-09-21 09:57:00,64.7,54.7,29.90,SW,227,0.0,7.0,70,0.00,,,0.00,VWS V14.01,2013-09-21 14:57:00,
2013-09-21 10:02:00,65.1,54.3,29.90,West,279,0.0,0.0,68,0.00,,,0.00,VWS V14.01,2013-09-21 15:02:00,
2013-09-21 10:07:00,65.6,54.0,29.90,NW,316,1.0,3.0,66,0.00,,,0.00,VWS V14.01,2013-09-21 15:07:00,
2013-09-21 10:12:00,65.8,54.5,29.91,NW,308,0.0,0.0,67,0.00,,,0.00,VWS V14.01,2013-09-21 15:12:00,
2013-09-21 10:17:00,65.9,53.8,29.90,NE,43,0.0,6.0,65,0.00,,,0.00,VWS V14.01,2013-09-21 15:17:00,
2013-09-21 10:22:00,66.1,54.0,29.91,NNE,22,0.0,1.0,65,0.00,,,0.00,VWS V14.01,2013-09-21 15:22:00,
2013-09-21 10:27:00,66.7,54.6,29.91,NNE,19,0.0,2.0,65,0.00,,,0.00,VWS V14.01,2013-09-21 15:27:00,
2013-09-21 10:32:00,66.9,53.9,29.90,NNW,333,0.0,0.0,63,0.00,,,0.00,VWS V14.01,2013-09-21 15:32:00,
2013-09-21 10:37:00,66.7,53.7,29.91,NNW,343,2.0,4.0,63,0.00,,,0.00,VWS V14.01,2013-09-21 15:37:00,
2013-09-21 10:42:00,67.2,54.2,29.91,North,355,0.0,0.0,63,0.00,,,0.00,VWS V14.01,2013-09-21 15:42:00,
2013-09-21 10:47:00,68.2,54.2,29.91,North,360,0.0,3.0,61,0.00,,,0.00,VWS V14.01,2013-09-21 15:47:00,
2013-09-21 10:52:00,67.4,53.0,29.91,WNW,298,0.0,0.0,60,0.00,,,0.00,VWS V14.01,2013-09-21 15:52:00,
2013-09-21 10:57:00,67.9,54.4,29.91,WNW,299,1.0,2.0,62,0.00,,,0.00,VWS V14.01,2013-09-21 15:57:00,
2013-09-21 11:02:00,68.0,54.1,29.91,WSW,243,2.0,2.0,61,0.00,,,0.00,VWS V14.01,2013-09-21 16:02:00,
2013-09-21 11:07:00,67.8,52.0,29.91,North,5,4.0,9.0,57,0.00,,,0.00,VWS V14.01,2013-09-21 16:07:00,
2013-09-21 11:12:00,67.7,51.9,29.91,NNE,13,1.0,1.0,57,0.00,,,0.00,VWS V14.01,2013-09-21 16:12:00,
2013-09-21 11:17:00,68.5,53.2,29.91,North,355,1.0,3.0,58,0.00,,,0.00,VWS V14.01,2013-09-21 16:17:00,
2013-09-21 11:22:00,69.1,54.2,29.91,North,349,0.0,1.0,59,0.00,,,0.00,VWS V14.01,2013-09-21 16:22:00,
2013-09-21 11:27:00,68.9,53.5,29.91,NW,313,0.0,4.0,58,0.00,,,0.00,VWS V14.01,2013-09-21 16:27:00,
2013-09-21 11:32:00,68.4,53.1,29.91,East,98,2.0,4.0,58,0.00,,,0.00,VWS V14.01,2013-09-21 16:32:00,
2013-09-21 11:37:00,68.3,53.9,29.91,NE,34,1.0,5.0,60,0.00,,,0.00,VWS V14.01,2013-09-21 16:37:00,
2013-09-21 11:42:00,68.6,53.2,29.91,WNW,293,0.0,3.0,58,0.00,,,0.00,VWS V14.01,2013-09-21 16:42:00,
2013-09-21 11:47:00,69.3,54.4,29.91,West,270,1.0,3.0,59,0.00,,,0.00,VWS V14.01,2013-09-21 16:47:00,
2013-09-21 11:52:00,70.1,53.7,29.91,NNW,336,0.0,2.0,56,0.00,,,0.00,VWS V14.01,2013-09-21 16:52:00,
2013-09-21 11:57:00,70.1,53.7,29.90,NW,321,1.0,4.0,56,0.00,,,0.00,VWS V14.01,2013-09-21 16:57:00,
2013-09-21 12:02:00,69.6,53.2,29.90,South,183,0.0,1.0,56,0.00,,,0.00,VWS V14.01,2013-09-21 17:02:00,
2013-09-21 12:07:00,70.0,54.1,29.90,SSE,161,0.0,4.0,57,0.00,,,0.00,VWS V14.01,2013-09-21 17:07:00,
2013-09-21 12:12:00,70.1,52.7,29.90,NNW,348,2.0,2.0,54,0.00,,,0.00,VWS V14.01,2013-09-21 17:12:00,
2013-09-21 12:17:00,70.5,53.6,29.90,NE,44,0.0,2.0,55,0.00,,,0.00,VWS V14.01,2013-09-21 17:17:00,
2013-09-21 12:22:00,70.6,53.2,29.90,ENE,58,0.0,0.0,54,0.00,,,0.00,VWS V14.01,2013-09-21 17:22:00,
2013-09-21 12:27:00,70.7,52.8,29.90,NNE,15,0.0,4.0,53,0.00,,,0.00,VWS V14.01,2013-09-21 17:27:00,
2013-09-21 12:32:00,70.4,53.0,29.90,ENE,71,2.0,4.0,54,0.00,,,0.00,VWS V14.01,2013-09-21 17:32:00,
2013-09-21 12:37:00,69.8,52.9,29.90,North,360,1.0,4.0,55,0.00,,,0.00,VWS V14.01,2013-09-21 17:37:00,
2013-09-21 12:42:00,70.9,53.4,29.90,NE,50,0.0,2.0,54,0.00,,,0.00,VWS V14.01,2013-09-21 17:42:00,
2013-09-21 12:47:00,70.3,52.4,29.90,SSW,199,0.0,4.0,53,0.00,,,0.00,VWS V14.01,2013-09-21 17:47:00,
2013-09-21 12:52:00,70.4,53.5,29.90,North,5,0.0,4.0,55,0.00,,,0.00,VWS V14.01,2013-09-21 17:52:00,
2013-09-21 12:57:00,71.0,52.5,29.90,NE,47,2.0,4.0,52,0.00,,,0.00,VWS V14.01,2013-09-21 17:57:00,
2013-09-21 13:02:00,71.4,52.9,29.90,ENE,59,0.0,1.0,52,0.00,,,0.00,VWS V14.01,2013-09-21 18:02:00,
2013-09-21 13:07:00,71.1,52.1,29.89,ENE,71,1.0,7.0,51,0.00,,,0.00,VWS V14.01,2013-09-21 18:07:00,
2013-09-21 13:12:00,70.4,52.5,29.89,WSW,246,0.0,5.0,53,0.00,,,0.00,VWS V14.01,2013-09-21 18:12:00,
2013-09-21 13:17:00,71.4,53.4,29.89,WNW,296,1.0,5.0,53,0.00,,,0.00,VWS V14.01,2013-09-21 18:17:00,
2013-09-21 13:22:00,71.9,52.3,29.89,WSW,249,4.0,4.0,50,0.00,,,0.00,VWS V14.01,2013-09-21 18:22:00,
2013-09-21 13:27:00,71.1,52.1,29.89,WSW,255,0.0,4.0,51,0.00,,,0.00,VWS V14.01,2013-09-21 18:27:00,
2013-09-21 13:32:00,71.7,53.2,29.88,SSE,155,1.0,5.0,52,0.00,,,0.00,VWS V14.01,2013-09-21 18:32:00,
2013-09-21 13:37:00,71.7,52.6,29.88,NW,309,1.0,5.0,51,0.00,,,0.00,VWS V14.01,2013-09-21 18:37:00,
2013-09-21 13:42:00,72.1,54.0,29.88,West,279,0.0,0.0,53,0.00,,,0.00,VWS V14.01,2013-09-21 18:42:00,
2013-09-21 13:47:00,72.0,52.4,29.88,NE,44,0.0,5.0,50,0.00,,,0.00,VWS V14.01,2013-09-21 18:47:00,
2013-09-21 13:52:00,71.9,53.3,29.88,NE,37,0.0,1.0,52,0.00,,,0.00,VWS V14.01,2013-09-21 18:52:00,
2013-09-21 13:57:00,72.6,54.0,29.88,ENE,72,1.0,3.0,52,0.00,,,0.00,VWS V14.01,2013-09-21 18:57:00,
2013-09-21 14:02:00,71.8,53.2,29.88,WSW,245,0.0,5.0,52,0.00,,,0.00,VWS V14.01,2013-09-21 19:02:00,
2013-09-21 14:07:00,72.3,53.2,29.88,ENE,60,0.0,5.0,51,0.00,,,0.00,VWS V14.01,2013-09-21 19:07:00,
2013-09-21 14:12:00,71.7,53.2,29.88,NNE,22,0.0,1.0,52,0.00,,,0.00,VWS V14.01,2013-09-21 19:12:00,
2013-09-21 14:17:00,71.9,53.9,29.88,North,9,0.0,6.0,53,0.00,,,0.00,VWS V14.01,2013-09-21 19:17:00,
2013-09-21 14:22:00,72.4,52.7,29.88,NE,36,1.0,1.0,50,0.00,,,0.00,VWS V14.01,2013-09-21 19:22:00,
2013-09-21 14:27:00,72.7,54.1,29.88,NW,325,0.0,6.0,52,0.00,,,0.00,VWS V14.01,2013-09-21 19:27:00,
2013-09-21 14:32:00,71.5,52.4,29.87,WSW,257,0.0,1.0,51,0.00,,,0.00,VWS V14.01,2013-09-21 19:32:00,
2013-09-21 14:37:00,72.2,53.6,29.87,NE,49,0.0,3.0,52,0.00,,,0.00,VWS V14.01,2013-09-21 19:37:00,
2013-09-21 14:42:00,72.2,53.6,29.87,NNE,28,1.0,3.0,52,0.00,,,0.00,VWS V14.01,2013-09-21 19:42:00,
2013-09-21 14:47:00,71.5,52.4,29.87,North,11,0.0,4.0,51,0.00,,,0.00,VWS V14.01,2013-09-21 19:47:00,
2013-09-21 14:52:00,72.4,53.3,29.87,NNE,13,0.0,2.0,51,0.00,,,0.00,VWS V14.01,2013-09-21 19:52:00,
2013-09-21 14:57:00,72.5,53.9,29.87,NE,38,0.0,5.0,52,0.00,,,0.00,VWS V14.01,2013-09-21 19:57:00,
2013-09-21 15:02:00,71.8,53.8,29.87,North,360,0.0,0.0,53,0.00,,,0.00,VWS V14.01,2013-09-21 20:02:00,
2013-09-21 15:07:00,72.3,54.2,29.87,ENE,59,3.0,3.0,53,0.00,,,0.00,VWS V14.01,2013-09-21 20:07:00,
2013-09-21 15:12:00,72.3,53.7,29.86,NNE,12,0.0,3.0,52,0.00,,,0.00,VWS V14.01,2013-09-21 20:12:00,
2013-09-21 15:17:00,71.7,53.2,29.86,NNE,12,0.0,3.0,52,0.00,,,0.00,VWS V14.01,2013-09-21 20:17:00,
2013-09-21 15:22:00,71.3,53.3,29.86,NNE,22,0.0,0.0,53,0.00,,,0.00,VWS V14.01,2013-09-21 20:22:00,
2013-09-21 15:27:00,72.5,54.4,29.86,NNE,19,0.0,3.0,53,0.00,,,0.00,VWS V14.01,2013-09-21 20:27:00,
2013-09-21 15:32:00,73.2,54.5,29.86,North,5,0.0,1.0,52,0.00,,,0.00,VWS V14.01,2013-09-21 20:32:00,
2013-09-21 15:37:00,73.1,52.8,29.86,East,84,0.0,4.0,49,0.00,,,0.00,VWS V14.01,2013-09-21 20:37:00,
2013-09-21 15:42:00,72.4,54.3,29.86,ENE,74,0.0,4.0,53,0.00,,,0.00,VWS V14.01,2013-09-21 20:42:00,
2013-09-21 15:47:00,72.3,53.2,29.86,ENE,70,2.0,5.0,51,0.00,,,0.00,VWS V14.01,2013-09-21 20:47:00,
2013-09-21 15:52:00,73.0,54.9,29.87,NNE,26,0.0,3.0,53,0.00,,,0.00,VWS V14.01,2013-09-21 20:52:00,
2013-09-21 15:57:00,73.9,54.1,29.87,NNE,26,0.0,3.0,50,0.00,,,0.00,VWS V14.01,2013-09-21 20:57:00,
2013-09-21 16:02:00,73.8,52.9,29.86,NNE,13,0.0,2.0,48,0.00,,,0.00,VWS V14.01,2013-09-21 21:02:00,
2013-09-21 16:07:00,72.5,52.3,29.86,WSW,243,7.0,9.0,49,0.00,,,0.00,VWS V14.01,2013-09-21 21:07:00,
2013-09-21 16:12:00,72.0,54.0,29.86,SW,229,0.0,2.0,53,0.00,,,0.00,VWS V14.01,2013-09-21 21:12:00,
2013-09-21 16:17:00,72.8,53.6,29.86,SSW,203,0.0,4.0,51,0.00,,,0.00,VWS V14.01,2013-09-21 21:17:00,
2013-09-21 16:22:00,72.8,54.2,29.87,West,280,2.0,3.0,52,0.00,,,0.00,VWS V14.01,2013-09-21 21:22:00,
2013-09-21 16:27:00,73.1,53.9,29.87,WNW,288,1.0,3.0,51,0.00,,,0.00,VWS V14.01,2013-09-21 21:27:00,
2013-09-21 16:32:00,72.7,52.5,29.86,West,261,0.0,4.0,49,0.00,,,0.00,VWS V14.01,2013-09-21 21:32:00,
2013-09-21 16:37:00,72.7,54.1,29.86,West,264,0.0,4.0,52,0.00,,,0.00,VWS V14.01,2013-09-21 21:37:00,
2013-09-21 16:42:00,73.1,53.9,29.86,West,263,0.0,0.0,51,0.00,,,0.00,VWS V14.01,2013-09-21 21:42:00,
2013-09-21 16:47:00,73.1,53.9,29.87,SE,131,0.0,5.0,51,0.00,,,0.00,VWS V14.01,2013-09-21 21:47:00,
2013-09-21 16:52:00,72.9,53.2,29.87,South,181,5.0,5.0,50,0.00,,,0.00,VWS V14.01,2013-09-21 21:52:00,
2013-09-21 16:57:00,72.2,52.5,29.87,SW,235,0.0,6.0,50,0.00,,,0.00,VWS V14.01,2013-09-21 21:57:00,
2013-09-21 17:02:00,72.5,52.8,29.86,SW,235,0.0,1.0,50,0.00,,,0.00,VWS V14.01,2013-09-21 22:02:00,
2013-09-21 17:07:00,71.9,53.3,29.86,SW,232,0.0,1.0,52,0.00,,,0.00,VWS V14.01,2013-09-21 22:07:00,
2013-09-21 17:12:00,71.8,53.2,29.86,SW,234,0.0,1.0,52,0.00,,,0.00,VWS V14.01,2013-09-21 22:12:00,
2013-09-21 17:17:00,72.1,54.6,29.86,SW,234,0.0,1.0,54,0.00,,,0.00,VWS V14.01,2013-09-21 22:17:00,
2013-09-21 17:22:00,71.8,53.2,29.86,SW,234,0.0,1.0,52,0.00,,,0.00,VWS V14.01,2013-09-21 22:22:00,
2013-09-21 17:27:00,71.5,53.5,29.86,WSW,258,0.0,3.0,53,0.00,,,0.00,VWS V14.01,2013-09-21 22:27:00,
2013-09-21 17:32:00,71.2,52.7,29.87,WNW,282,2.0,2.0,52,0.00,,,0.00,VWS V14.01,2013-09-21 22:32:00,
2013-09-21 17:38:00,70.9,52.4,29.86,West,279,0.0,2.0,52,0.00,,,0.00,VWS V14.01,2013-09-21 22:38:00,
2013-09-21 17:43:00,70.7,52.8,29.87,WNW,284,0.0,2.0,53,0.00,,,0.00,VWS V14.01,2013-09-21 22:43:00,
2013-09-21 17:48:00,70.5,52.6,29.87,WNW,293,0.0,3.0,53,0.00,,,0.00,VWS V14.01,2013-09-21 22:48:00,
2013-09-21 17:53:00,70.4,53.5,29.87,WNW,293,0.0,0.0,55,0.00,,,0.00,VWS V14.01,2013-09-21 22:53:00,
2013-09-21 17:58:00,70.2,52.8,29.87,WNW,294,0.0,1.0,54,0.00,,,0.00,VWS V14.01,2013-09-21 22:58:00,
2013-09-21 18:03:00,70.0,53.1,29.87,WNW,294,0.0,1.0,55,0.00,,,0.00,VWS V14.01,2013-09-21 23:03:00,
2013-09-21 18:08:00,69.8,52.9,29.87,NW,315,0.0,1.0,55,0.00,,,0.00,VWS V14.01,2013-09-21 23:08:00,
2013-09-21 18:13:00,69.5,53.1,29.87,NW,315,0.0,0.0,56,0.00,,,0.00,VWS V14.01,2013-09-21 23:13:00,
2013-09-21 18:18:00,69.3,53.4,29.87,NW,315,0.0,1.0,57,0.00,,,0.00,VWS V14.01,2013-09-21 23:18:00,
2013-09-21 18:23:00,69.1,53.7,29.87,NW,315,0.0,0.0,58,0.00,,,0.00,VWS V14.01,2013-09-21 23:23:00,
2013-09-21 18:28:00,68.8,53.4,29.87,NW,315,0.0,0.0,58,0.00,,,0.00,VWS V14.01,2013-09-21 23:28:00,
2013-09-21 18:33:00,68.5,53.6,29.87,NW,315,0.0,0.0,59,0.00,,,0.00,VWS V14.01,2013-09-21 23:33:00,
2013-09-21 18:38:00,68.2,53.8,29.87,NW,315,0.0,0.0,60,0.00,,,0.00,VWS V14.01,2013-09-21 23:38:00,
2013-09-21 18:43:00,67.9,53.5,29.87,NW,315,0.0,0.0,60,0.00,,,0.00,VWS V14.01,2013-09-21 23:43:00,
2013-09-21 18:48:00,67.6,53.7,29.87,NW,315,0.0,0.0,61,0.00,,,0.00,VWS V14.01,2013-09-21 23:48:00,
2013-09-21 18:53:00,67.2,53.8,29.87,NW,315,0.0,0.0,62,0.00,,,0.00,VWS V14.01,2013-09-21 23:53:00,
2013-09-21 18:58:00,66.8,53.8,29.87,NW,315,0.0,0.0,63,0.00,,,0.00,VWS V14.01,2013-09-21 23:58:00,
2013-09-21 19:03:00,66.4,53.4,29.87,NW,315,0.0,0.0,63,0.00,,,0.00,VWS V14.01,2013-09-22 00:03:00,
2013-09-21 19:08:00,65.9,53.4,29.87,NW,315,0.0,0.0,64,0.00,,,0.00,VWS V14.01,2013-09-22 00:08:00,
2013-09-21 19:13:00,65.4,53.3,29.87,NW,315,0.0,0.0,65,0.00,,,0.00,VWS V14.01,2013-09-22 00:13:00,
2013-09-21 19:18:00,65.0,53.4,29.87,NW,315,0.0,0.0,66,0.00,,,0.00,VWS V14.01,2013-09-22 00:18:00,
2013-09-21 19:23:00,64.6,53.0,29.87,NW,315,0.0,0.0,66,0.00,,,0.00,VWS V14.01,2013-09-22 00:23:00,
2013-09-21 19:28:00,64.1,52.9,29.87,NW,315,0.0,0.0,67,0.00,,,0.00,VWS V14.01,2013-09-22 00:28:00,
2013-09-21 19:33:00,63.7,53.0,29.87,NW,315,0.0,0.0,68,0.00,,,0.00,VWS V14.01,2013-09-22 00:33:00,
2013-09-21 19:38:00,63.3,53.0,29.88,NW,315,0.0,0.0,69,0.00,,,0.00,VWS V14.01,2013-09-22 00:38:00,
2013-09-21 19:43:00,63.0,53.1,29.87,NW,315,0.0,0.0,70,0.00,,,0.00,VWS V14.01,2013-09-22 00:43:00,
2013-09-21 19:48:00,62.6,53.1,29.88,NW,315,0.0,0.0,71,0.00,,,0.00,VWS V14.01,2013-09-22 00:48:00,
2013-09-21 19:53:00,62.2,53.1,29.88,NW,315,0.0,0.0,72,0.00,,,0.00,VWS V14.01,2013-09-22 00:53:00,
2013-09-21 19:58:00,61.9,52.8,29.88,NW,315,0.0,0.0,72,0.00,,,0.00,VWS V14.01,2013-09-22 00:58:00,
2013-09-21 20:03:00,61.5,52.8,29.88,NW,315,0.0,0.0,73,0.00,,,0.00,VWS V14.01,2013-09-22 01:03:00,
2013-09-21 20:08:00,61.2,52.9,29.88,NW,315,0.0,0.0,74,0.00,,,0.00,VWS V14.01,2013-09-22 01:08:00,
2013-09-21 20:13:00,60.9,52.6,29.88,NW,315,0.0,0.0,74,0.00,,,0.00,VWS V14.01,2013-09-22 01:13:00,
2013-09-21 20:18:00,60.7,52.4,29.89,NW,315,0.0,0.0,74,0.00,,,0.00,VWS V14.01,2013-09-22 01:18:00,
2013-09-21 20:23:00,60.4,52.5,29.89,NW,315,0.0,0.0,75,0.00,,,0.00,VWS V14.01,2013-09-22 01:23:00,
2013-09-21 20:28:00,60.1,52.2,29.89,NW,315,0.0,0.0,75,0.00,,,0.00,VWS V14.01,2013-09-22 01:28:00,
2013-09-21 20:33:00,59.8,52.2,29.89,NW,315,0.0,0.0,76,0.00,,,0.00,VWS V14.01,2013-09-22 01:33:00,
2013-09-21 20:38:00,59.6,52.0,29.89,NW,315,0.0,0.0,76,0.00,,,0.00,VWS V14.01,2013-09-22 01:38:00,
2013-09-21 20:43:00,59.4,52.2,29.89,NW,315,0.0,0.0,77,0.00,,,0.00,VWS V14.01,2013-09-22 01:43:00,
2013-09-21 20:48:00,59.1,51.9,29.89,NW,315,0.0,0.0,77,0.00,,,0.00,VWS V14.01,2013-09-22 01:48:00,
2013-09-21 20:53:00,58.9,52.1,29.89,NW,315,0.0,0.0,78,0.00,,,0.00,VWS V14.01,2013-09-22 01:53:00,
2013-09-21 20:58:00,58.7,51.9,29.89,NW,315,0.0,0.0,78,0.00,,,0.00,VWS V14.01,2013-09-22 01:58:00,
2013-09-21 21:03:00,58.5,52.0,29.89,NW,315,0.0,0.0,79,0.00,,,0.00,VWS V14.01,2013-09-22 02:03:00,
2013-09-21 21:08:00,58.3,51.8,29.89,NW,315,0.0,0.0,79,0.00,,,0.00,VWS V14.01,2013-09-22 02:08:00,
2013-09-21 21:13:00,58.1,52.0,29.89,NW,315,0.0,0.0,80,0.00,,,0.00,VWS V14.01,2013-09-22 02:13:00,
2013-09-21 21:18:00,57.9,51.8,29.90,NW,315,0.0,0.0,80,0.00,,,0.00,VWS V14.01,2013-09-22 02:18:00,
2013-09-21 21:23:00,57.7,51.9,29.90,NW,315,0.0,0.0,81,0.00,,,0.00,VWS V14.01,2013-09-22 02:23:00,
2013-09-21 21:28:00,57.6,52.2,29.90,NW,315,0.0,0.0,82,0.00,,,0.00,VWS V14.01,2013-09-22 02:28:00,
2013-09-21 21:33:00,57.4,52.0,29.90,NW,315,0.0,0.0,82,0.00,,,0.00,VWS V14.01,2013-09-22 02:33:00,
2013-09-21 21:38:00,57.3,52.2,29.90,NW,315,0.0,0.0,83,0.00,,,0.00,VWS V14.01,2013-09-22 02:38:00,
2013-09-21 21:43:00,57.2,52.1,29.90,NW,315,0.0,0.0,83,0.00,,,0.00,VWS V14.01,2013-09-22 02:43:00,
2013-09-21 21:48:00,57.0,51.9,29.90,NW,315,0.0,0.0,83,0.00,,,0.00,VWS V14.01,2013-09-22 02:48:00,
2013-09-21 21:53:00,56.9,51.8,29.90,NW,315,0.0,0.0,83,0.00,,,0.00,VWS V14.01,2013-09-22 02:53:00,
2013-09-21 21:58:00,56.8,52.0,29.90,NW,315,0.0,0.0,84,0.00,,,0.00,VWS V14.01,2013-09-22 02:58:00,
2013-09-21 22:03:00,56.7,51.9,29.90,NW,315,0.0,0.0,84,0.00,,,0.00,VWS V14.01,2013-09-22 03:03:00,
2013-09-21 22:08:00,56.5,51.7,29.90,NW,315,0.0,0.0,84,0.00,,,0.00,VWS V14.01,2013-09-22 03:08:00,
2013-09-21 22:13:00,56.4,51.6,29.90,NW,315,0.0,0.0,84,0.00,,,0.00,VWS V14.01,2013-09-22 03:13:00,
2013-09-21 22:18:00,56.3,51.5,29.90,NW,315,0.0,0.0,84,0.00,,,0.00,VWS V14.01,2013-09-22 03:18:00,
2013-09-21 22:23:00,56.2,51.4,29.90,NW,315,0.0,0.0,84,0.00,,,0.00,VWS V14.01,2013-09-22 03:23:00,
2013-09-21 22:28:00,56.1,51.7,29.90,NW,315,0.0,0.0,85,0.00,,,0.00,VWS V14.01,2013-09-22 03:28:00,
2013-09-21 22:33:00,56.0,51.6,29.90,NW,315,0.0,0.0,85,0.00,,,0.00,VWS V14.01,2013-09-22 03:33:00,
2013-09-21 22:38:00,55.9,51.5,29.90,NW,315,0.0,0.0,85,0.00,,,0.00,VWS V14.01,2013-09-22 03:38:00,
2013-09-21 22:43:00,55.7,51.3,29.90,NW,315,0.0,0.0,85,0.00,,,0.00,VWS V14.01,2013-09-22 03:43:00,
2013-09-21 22:48:00,55.6,51.2,29.91,NW,315,0.0,0.0,85,0.00,,,0.00,VWS V14.01,2013-09-22 03:48:00,
2013-09-21 22:53:00,55.5,51.1,29.91,NW,315,0.0,0.0,85,0.00,,,0.00,VWS V14.01,2013-09-22 03:53:00,
2013-09-21 22:58:00,55.4,51.3,29.91,NW,315,0.0,0.0,86,0.00,,,0.00,VWS V14.01,2013-09-22 03:58:00,
2013-09-21 23:01:00,55.4,51.3,29.91,NW,315,0.0,0.0,86,0.00,,,0.00,VWS V14.01,2013-09-22 04:01:00,
2013-09-21 23:03:00,55.3,51.2,29.91,NW,315,0.0,0.0,86,0.00,,,0.00,VWS V14.01,2013-09-22 04:03:00,
2013-09-21 23:08:00,55.2,51.1,29.91,NW,315,0.0,0.0,86,0.00,,,0.00,VWS V14.01,2013-09-22 04:08:00,
2013-09-21 23:13:00,55.1,51.0,29.91,NW,315,0.0,0.0,86,0.00,,,0.00,VWS V14.01,2013-09-22 04:13:00,
2013-09-21 23:18:00,55.0,50.9,29.91,NW,315,0.0,0.0,86,0.00,,,0.00,VWS V14.01,2013-09-22 04:18:00,
2013-09-21 23:23:00,54.9,50.8,29.91,NW,315,0.0,0.0,86,0.00,,,0.00,VWS V14.01,2013-09-22 04:23:00,
2013-09-21 23:28:00,54.8,50.7,29.91,NW,315,0.0,0.0,86,0.00,,,0.00,VWS V14.01,2013-09-22 04:28:00,
2013-09-21 23:33:00,54.6,50.5,29.91,NW,315,0.0,0.0,86,0.00,,,0.00,VWS V14.01,2013-09-22 04:33:00,
2013-09-21 23:38:00,54.5,50.4,29.91,NW,315,0.0,0.0,86,0.00,,,0.00,VWS V14.01,2013-09-22 04:38:00,
2013-09-21 23:43:00,54.4,50.3,29.91,NW,315,0.0,0.0,86,0.00,,,0.00,VWS V14.01,2013-09-22 04:43:00,
2013-09-21 23:48:00,54.3,50.2,29.91,NW,315,0.0,0.0,86,0.00,,,0.00,VWS V14.01,2013-09-22 04:48:00,
2013-09-21 23:53:00,54.2,50.1,29.91,NW,315,0.0,0.0,86,0.00,,,0.00,VWS V14.01,2013-09-22 04:53:00,
2013-09-21 23:58:00,54.1,50.0,29.91,NW,315,0.0,0.0,86,0.00,,,0.00,VWS V14.01,2013-09-22 04:58:00,